[[{"header":{"parameterUnit":"m.s-1","parameterCategory":1,"la1":30.2991,"la2":30.254,"lo1":-89.0895,"lo2":-89.0444,"dy":0.0017,"dx":0.0017,"nx":28,"ny":28,"refTime":"2024-06-28T21:00:00:Z","depth":0,"parameterNumber":2,"parameterNumberName":"U-component_of_WINDS"},"data":[0,0,0,0,0,0,0,0,0,0,0,0,0,0,0,0,0,0,0,0,0,0,0,0,0,0,0,0,0,0,0,0,0,0,0,0,0,0,0,0,0,0,0,0,0,0,0,0,0,0,0,0,0,0,0,0,0,0,3.0925,3.0924,0,3.0876,3.0875,3.0875,3.0774,3.0772,3.077,3.0768,3.0718,3.0718,3.0719,0,0,0,0,0,0,0,0,0,0,0,0,0,3.0928,3.0929,3.0925,3.0924,3.0924,3.0876,3.0875,3.0875,3.0774,3.0772,3.077,3.0767,3.0717,3.0718,3.0719,0,0,0,0,0,0,0,0,0,0,0,0,0,3.0908,3.0929,3.0925,3.0868,3.0862,3.0876,3.0875,3.0875,3.0775,3.0772,3.0769,3.0766,3.0717,3.0718,3.0719,3.0784,0,0,3.0721,3.0721,0,0,0,0,0,0,0,0,3.0909,3.0908,3.0877,3.0872,3.0866,3.0828,3.0858,3.0844,3.0776,3.0808,3.0768,3.0765,3.0757,3.0754,3.0751,3.0782,3.0779,3.0721,3.0722,3.0722,3.0722,0,0,0,0,0,0,0,3.0911,3.091,3.0905,3.0877,3.087,3.0844,3.0838,3.0855,3.08,3.0805,3.0798,3.0793,3.0753,3.0751,3.075,3.0779,3.0721,3.0722,3.0722,3.0723,3.0854,3.0857,0,0,0,0,0,0,3.0921,3.0911,3.0907,3.0904,3.0881,3.0846,3.0839,3.0843,3.0799,3.079,3.0796,3.0789,3.0751,3.0749,3.0747,3.0816,3.0722,3.0723,3.0723,3.0851,3.0855,3.0858,0,0,0,0,0,0,3.0921,3.0921,3.0909,3.0906,3.0902,3.0849,3.0855,3.0844,3.0841,3.0793,3.0782,3.0804,3.0749,3.0746,3.0774,3.0813,3.0723,3.0724,3.0848,3.0852,3.0856,3.0958,0,0,0,0,0,0,3.0922,3.0922,3.0947,3.0907,3.0903,3.0938,3.0857,3.0845,3.0843,3.0833,3.0797,3.0788,3.0746,3.0774,3.0775,3.0813,3.0724,3.0844,3.085,3.0855,3.0951,3.0966,3.0978,0,0,0,0,0,3.0922,3.0979,3.0949,3.0949,3.0933,3.0941,3.0938,3.0888,3.0847,3.0871,3.0838,3.079,3.081,3.0778,3.0778,3.0817,3.0841,3.0848,3.0855,3.0945,3.0963,3.0978,0,0,0,0,0,0,3.1026,3.0973,3.0939,3.0985,3.0968,3.0924,3.0952,3.091,3.0904,3.0895,3.0833,3.0826,3.0861,3.0842,3.0807,3.0875,3.0817,3.0825,3.0886,3.0902,3.0916,3.0918,3.0725,0,0,0,0,0,3.1055,3.1066,3.1018,3.1063,3.1056,3.1006,3.1008,3.097,3.095,3.0943,3.0913,3.0895,3.0896,3.0899,3.0898,3.0949,3.0937,3.0975,3.0989,3.1,3.1006,3.1027,3.1042,3.088,3.088,3.088,0,0,3.1113,3.1085,3.1096,3.1083,3.1066,3.1076,3.1001,3.1017,3.1024,3.0945,3.0968,3.0946,3.0922,3.096,3.0976,3.0945,3.1049,3.1009,3.1019,3.1018,3.1035,3.1051,3.1064,3.0885,3.0884,3.0883,0,0,3.1224,3.1206,3.1238,3.1222,3.1196,3.1162,3.117,3.1132,3.1113,3.1136,3.1075,3.1083,3.1089,3.1072,3.1064,3.1166,3.1119,3.1168,3.1237,3.1258,3.1271,3.1282,3.1314,3.1326,3.1175,3.1175,3.1175,0,3.1299,3.1314,3.1261,3.1279,3.1274,3.1203,3.1233,3.122,3.1196,3.1193,3.116,3.1162,3.1141,3.1172,3.1196,3.1194,3.1199,3.117,3.1273,3.1284,3.1293,3.1323,3.1335,3.1181,3.118,3.1179,3.1179,0,3.1406,3.1417,3.1447,3.1423,3.1421,3.1446,3.1395,3.1399,3.1362,3.1331,3.1353,3.1325,3.1315,3.132,3.1285,3.1345,3.1326,3.1285,3.1225,3.1315,3.1342,3.1353,3.1189,3.1187,3.1185,3.1184,0,0,3.158,3.1525,3.1536,3.1523,3.1488,3.1495,3.1516,3.1505,3.1508,3.1494,3.1507,3.1512,3.1472,3.1463,3.1425,3.1444,3.152,3.1399,3.1397,3.1419,3.158,3.1609,3.1623,3.149,3.1493,3.1494,3.158,0,3.168,3.1712,3.1663,3.1705,3.1712,3.1644,3.1661,3.1641,3.1612,3.1613,3.1581,3.1584,3.1533,3.1526,3.1542,3.1508,3.1551,3.1502,3.1499,3.15,3.1504,3.1638,3.1669,3.1752,3.1591,3.1593,3.1594,0,3.18,3.1789,3.1832,3.1791,3.1792,3.1809,3.1793,3.1796,3.1771,3.1748,3.1737,3.1692,3.1706,3.1651,3.1669,3.1636,3.1632,3.1615,3.1617,3.1612,3.155,3.1633,3.1778,3.1789,3.1611,3.161,3.1608,0,3.1917,3.1914,3.1937,3.1929,3.1883,3.1895,3.1877,3.1848,3.1844,3.1831,3.1826,3.1816,3.1809,3.1801,3.1752,3.1717,3.1774,3.1716,3.1753,3.1754,3.1766,3.1765,3.1909,3.177,3.177,3.177,3.177,0,3.2031,3.2059,3.1989,3.2003,3.2031,3.1975,3.2003,3.1978,3.1953,3.1959,3.1901,3.1908,3.1845,3.1845,3.1808,3.1825,3.1824,3.1804,3.1793,3.1807,3.1809,3.1801,3.1793,3.1773,3.1773,3.1772,3.1771,0,3.2166,3.212,3.2141,3.2095,3.2084,3.2106,3.2066,3.2076,3.2043,3.2052,3.205,3.1998,3.1995,3.1946,3.1933,3.1908,3.1939,3.1919,3.1947,3.1939,3.1977,3.1973,3.2118,3.2132,3.1989,3.1991,3.1992,0,3.2239,3.2258,3.2214,3.2214,3.2197,3.2199,3.2193,3.2139,3.2135,3.2105,3.2118,3.211,3.21,3.2097,3.2057,3.2045,3.2022,3.2074,3.202,3.2032,3.2018,3.2015,3.2015,3.2084,3.2086,3.2088,3.2089,0,3.2373,3.2349,3.2344,3.233,3.2325,3.2312,3.2295,3.2298,3.2237,3.2236,3.2231,3.2223,3.2208,3.2199,3.218,3.2158,3.2112,3.2107,3.2114,3.2126,3.214,3.2128,3.1973,3.2103,3.2101,3.21,3.21,3.2099,3.2476,3.2488,3.2458,3.2453,3.2434,3.2419,3.2424,3.2392,3.2387,3.2369,3.2338,3.2337,3.2307,3.2276,3.2259,3.2256,3.2229,3.2241,3.2243,3.2246,3.2252,3.2144,3.2253,3.2253,3.2252,3.2252,3.2252,0,3.2603,3.258,3.2576,3.2553,3.2548,3.2506,3.2484,3.2483,3.2482,3.2459,3.245,3.2442,3.2433,3.2392,3.2377,3.2383,3.2361,3.238,3.2377,3.2372,3.2279,3.2272,3.2398,3.2398,3.2398,3.2398,3.2398,3.2398,3.2668,3.2685,3.2657,3.2663,3.2639,3.2637,3.2628,3.2612,3.2593,3.2587,3.2578,3.2552,3.252,3.2503,3.2491,3.2479,3.2474,3.25,3.2481,3.2393,3.2379,3.2366,3.2359,3.2501,3.2501,3.2573,3.2574,3.2575]},{"header":{"parameterUnit":"m.s-1","parameterCategory":1,"la1":30.2991,"la2":30.254,"lo1":-89.0895,"lo2":-89.0444,"dy":0.0017,"dx":0.0017,"nx":28,"ny":28,"refTime":"2024-06-28T21:00:00:Z","depth":0,"parameterNumber":3,"parameterNumberName":"V-component_of_WINDS"},"data":[0,0,0,0,0,0,0,0,0,0,0,0,0,0,0,0,0,0,0,0,0,0,0,0,0,0,0,0,0,0,0,0,0,0,0,0,0,0,0,0,0,0,0,0,0,0,0,0,0,0,0,0,0,0,0,0,0,0,3.6656,3.6657,0,3.6731,3.6731,3.6732,3.6719,3.6718,3.6717,3.6715,3.6789,3.6792,3.6796,0,0,0,0,0,0,0,0,0,0,0,0,0,3.65,3.6503,3.6656,3.6657,3.6658,3.6731,3.6732,3.6733,3.6719,3.6718,3.6716,3.6715,3.6788,3.6792,3.6796,0,0,0,0,0,0,0,0,0,0,0,0,0,3.6571,3.6504,3.6656,3.666,3.6661,3.673,3.6732,3.6733,3.672,3.6718,3.6716,3.6714,3.6787,3.6792,3.6796,3.6865,0,0,3.6811,3.6813,0,0,0,0,0,0,0,0,3.6567,3.6576,3.6658,3.666,3.6661,3.6714,3.6704,3.6777,3.672,3.6697,3.6715,3.6713,3.6766,3.6772,3.679,3.6869,3.6872,3.6811,3.6814,3.6816,3.6818,0,0,0,0,0,0,0,3.6562,3.6573,3.6685,3.666,3.6661,3.6658,3.6666,3.6718,3.6741,3.6699,3.6699,3.6708,3.6766,3.6786,3.6792,3.6873,3.6811,3.6816,3.6818,3.682,3.7012,3.7015,0,0,0,0,0,0,3.6556,3.6569,3.6683,3.6688,3.6608,3.6662,3.6671,3.6699,3.6741,3.6746,3.6709,3.6707,3.6778,3.6786,3.6794,3.6878,3.6816,3.6821,3.6824,3.701,3.7013,3.7015,0,0,0,0,0,0,3.6553,3.6566,3.668,3.6628,3.6642,3.6667,3.6698,3.6701,3.6721,3.6749,3.6752,3.6725,3.6777,3.6788,3.6848,3.6881,3.6823,3.6827,3.7008,3.7011,3.7014,3.7046,0,0,0,0,0,0,3.6548,3.6565,3.6592,3.6629,3.6645,3.6733,3.67,3.6704,3.673,3.6727,3.6764,3.6769,3.6776,3.6841,3.6853,3.6886,3.6831,3.7005,3.7009,3.7013,3.7042,3.705,3.7057,0,0,0,0,0,3.6543,3.6597,3.6593,3.6607,3.6679,3.6735,3.6744,3.6753,3.6732,3.6759,3.6777,3.6768,3.6875,3.6847,3.686,3.6896,3.7003,3.7008,3.7013,3.7039,3.7049,3.7057,0,0,0,0,0,0,3.6561,3.6602,3.6598,3.6666,3.6697,3.6732,3.6766,3.6762,3.6799,3.6795,3.6803,3.6812,3.6874,3.6891,3.6859,3.6965,3.6936,3.6944,3.6951,3.6961,3.6968,3.6962,3.6835,0,0,0,0,0,3.6574,3.6616,3.6649,3.6706,3.6722,3.6742,3.6766,3.677,3.6802,3.6815,3.6837,3.6869,3.691,3.6936,3.6975,3.7045,3.7053,3.7076,3.7083,3.7089,3.7095,3.7134,3.7145,3.7032,3.7032,3.7032,0,0,3.6599,3.6626,3.6652,3.671,3.6735,3.6778,3.6753,3.6799,3.6831,3.6822,3.6881,3.6898,3.6934,3.6999,3.7029,3.7015,3.7129,3.7095,3.71,3.7103,3.7141,3.7151,3.7161,3.7035,3.7035,3.7034,0,0,3.6667,3.6692,3.6743,3.6768,3.6807,3.682,3.6832,3.6869,3.688,3.694,3.6934,3.6972,3.7042,3.7068,3.709,3.717,3.7163,3.7183,3.7221,3.7259,3.7268,3.7276,3.7304,3.7315,3.7189,3.7189,3.719,0,3.6693,3.6759,3.6769,3.6817,3.6843,3.6838,3.6889,3.6913,3.6962,3.6979,3.6964,3.7053,3.7076,3.7148,3.7168,3.7186,3.72,3.7178,3.7266,3.7274,3.7281,3.7309,3.732,3.7192,3.7191,3.7191,3.7191,0,3.679,3.6836,3.6872,3.692,3.695,3.7,3.7017,3.7046,3.7048,3.7062,3.7123,3.7152,3.7197,3.7214,3.7216,3.7287,3.7278,3.7264,3.7235,3.7294,3.732,3.7331,3.7195,3.7194,3.7193,3.7193,0,0,3.687,3.6925,3.6938,3.6961,3.7004,3.7039,3.7088,3.7134,3.7159,3.7193,3.7234,3.7295,3.7283,3.7308,3.7313,3.7347,3.7409,3.7329,3.733,3.7343,3.749,3.7499,3.7512,3.7405,3.7407,3.7409,3.7487,0,3.6942,3.703,3.7041,3.7119,3.7162,3.7159,3.7202,3.7233,3.7248,3.7287,3.7303,3.7346,3.7327,3.7343,3.7376,3.7394,3.7438,3.7389,3.7443,3.7445,3.7434,3.7525,3.7535,3.7608,3.7497,3.7499,3.75,0,3.7038,3.7077,3.7159,3.7197,3.7216,3.7254,3.7297,3.7334,3.7369,3.7378,3.7408,3.7409,3.746,3.743,3.75,3.7466,3.7489,3.7502,3.7505,3.751,3.7476,3.7532,3.7631,3.7642,3.7516,3.7515,3.7514,0,3.7089,3.7161,3.722,3.7239,3.7285,3.7313,3.7333,3.7366,3.7394,3.7431,3.7449,3.7492,3.7515,3.7548,3.7561,3.7538,3.7631,3.7602,3.764,3.764,3.7659,3.7657,3.7762,3.7674,3.7674,3.7674,3.7674,0,3.7168,3.7218,3.7244,3.728,3.7337,3.7349,3.7405,3.7424,3.7454,3.7494,3.7494,3.7531,3.7546,3.7586,3.7596,3.7653,3.7663,3.7672,3.7674,3.7672,3.7671,3.7687,3.7682,3.7677,3.7676,3.7676,3.7675,0,3.7233,3.7252,3.7316,3.7355,3.7367,3.7407,3.744,3.7475,3.7491,3.7542,3.7554,3.7579,3.7626,3.7642,3.7699,3.7706,3.7772,3.777,3.7761,3.7761,3.7799,3.7795,3.7917,3.7934,3.7835,3.7836,3.7837,0,3.7282,3.7321,3.7365,3.7392,3.7414,3.7458,3.7486,3.75,3.7529,3.7574,3.7604,3.7651,3.7689,3.7764,3.7787,3.783,3.7829,3.7869,3.7836,3.7833,3.783,3.7827,3.7832,3.7875,3.7876,3.7877,3.7877,0,3.7367,3.7375,3.7416,3.7461,3.7495,3.7531,3.7566,3.7588,3.7607,3.764,3.7689,3.7719,3.7778,3.7825,3.787,3.789,3.7887,3.7888,3.7899,3.7897,3.789,3.7895,3.7778,3.7885,3.7884,3.7884,3.7883,3.7883,3.7425,3.746,3.7497,3.7543,3.7572,3.7604,3.764,3.7661,3.7702,3.7752,3.7758,3.7811,3.7846,3.7907,3.793,3.7971,3.796,3.7976,3.798,3.7984,3.7987,3.7884,3.7979,3.7979,3.7979,3.7979,3.7978,0,3.751,3.7534,3.7577,3.7626,3.7663,3.7658,3.7697,3.7728,3.7775,3.7808,3.7847,3.7904,3.795,3.7977,3.8023,3.8051,3.8051,3.8062,3.806,3.8065,3.7994,3.7979,3.8062,3.8062,3.8062,3.8062,3.8062,3.8062,3.7558,3.7617,3.763,3.7704,3.7728,3.778,3.7803,3.7833,3.7861,3.7925,3.7963,3.7981,3.8013,3.8062,3.8104,3.8111,3.8128,3.814,3.8146,3.8079,3.807,3.8062,3.8049,3.8144,3.8144,3.8214,3.8215,3.8215]}]]